[[{"header":{"parameterUnit":"m.s-1","parameterCategory":1,"la1":30.2991,"la2":30.254,"lo1":-89.0895,"lo2":-89.0444,"dy":0.0017,"dx":0.0017,"nx":28,"ny":28,"refTime":"2023-07-21T09:00:00:Z","depth":0,"parameterNumber":2,"parameterNumberName":"U-component_of_WINDS"},"data":[0,0,0,0,0,0,0,0,0,0,0,0,0,0,0,0,0,0,0,0,0,0,0,0,0,0,0,0,0,0,0,0,0,0,0,0,0,0,0,0,0,0,0,0,0,0,0,0,0,0,0,0,0,0,0,0,0,0,3.9598,3.9598,0,3.9674,3.9675,3.9676,3.9565,3.9561,3.9558,3.9554,3.9633,3.9639,3.9645,0,0,0,0,0,0,0,0,0,0,0,0,0,3.9354,3.9359,3.9597,3.9598,3.9599,3.9674,3.9675,3.9676,3.9566,3.9561,3.9557,3.9552,3.9631,3.9638,3.9645,0,0,0,0,0,0,0,0,0,0,0,0,0,3.9448,3.9361,3.9597,3.9553,3.955,3.9674,3.9675,3.9677,3.9567,3.9561,3.9555,3.955,3.9629,3.9637,3.9646,3.9817,0,0,3.9672,3.9676,0,0,0,0,0,0,0,0,3.9443,3.9457,3.9559,3.9557,3.9553,3.9604,3.9618,3.9724,3.9569,3.9561,3.9554,3.9547,3.9628,3.9637,3.9664,3.982,3.9824,3.9673,3.9678,3.9682,3.9685,0,0,0,0,0,0,0,3.9437,3.9453,3.9628,3.9561,3.9557,3.9529,3.9536,3.9638,3.9627,3.9561,3.9553,3.9564,3.9626,3.9656,3.9665,3.9825,3.9673,3.9681,3.9686,3.9689,4.0121,4.0127,0,0,0,0,0,0,3.9436,3.9449,3.9625,3.963,3.9483,3.9539,3.9546,3.9594,3.9625,3.9624,3.9569,3.9558,3.9644,3.9655,3.9667,3.9866,3.9682,3.969,3.9695,4.0115,4.0122,4.0129,0,0,0,0,0,0,3.9431,3.9452,3.9622,3.9537,3.9557,3.9549,3.9603,3.9598,3.9628,3.9631,3.9628,3.9602,3.964,3.9655,3.9779,3.9867,3.9694,3.9702,4.0107,4.0117,4.0126,4.0267,0,0,0,0,0,0,3.9424,3.9451,3.9517,3.954,3.9562,3.9734,3.9609,3.9604,3.9644,3.9631,3.9661,3.9661,3.9636,3.9767,3.9788,3.9876,3.9709,4.0099,4.0112,4.0123,4.0255,4.028,4.0302,0,0,0,0,0,3.9416,3.9554,3.952,3.9542,3.9643,3.9739,3.9752,3.9721,3.9651,3.9716,3.9717,3.966,3.9855,3.9781,3.9803,3.9896,4.0094,4.0108,4.0122,4.0244,4.0275,4.0302,0,0,0,0,0,0,3.9542,3.9556,3.9519,3.9669,3.9704,3.972,3.9801,3.9756,3.9811,3.9797,3.9757,3.9765,3.9897,3.9909,3.9826,4.006,3.9963,3.9982,4.0048,4.0077,4.0101,4.0094,3.9716,0,0,0,0,0,3.9588,3.9665,3.9673,3.9804,3.9823,3.981,3.9851,3.9824,3.9858,3.9872,3.9882,3.9918,3.9986,4.0033,4.0097,4.0256,4.026,4.0331,4.0355,4.0374,4.0391,4.0473,4.0503,4.0176,4.0176,4.0175,0,0,3.9682,3.9699,3.975,3.983,3.9854,3.9933,3.9823,3.9913,3.9971,3.9886,4.0002,4.0012,4.0048,4.019,4.0253,4.0204,4.0482,4.0392,4.0408,4.0414,4.049,4.0521,4.0549,4.0185,4.0184,4.0182,0,0,3.9894,3.9916,4.0026,4.0052,4.0088,4.0078,4.0105,4.0128,4.013,4.0247,4.0184,4.0253,4.0373,4.0401,4.0431,4.0651,4.0599,4.0674,4.0797,4.0878,4.0904,4.0926,4.1002,4.103,4.0691,4.0691,4.0691,0,4.0006,4.0124,4.0089,4.0182,4.0218,4.0144,4.0254,4.0281,4.0337,4.0363,4.0308,4.0455,4.0475,4.062,4.0674,4.0702,4.0729,4.0669,4.0903,4.0925,4.0946,4.1017,4.1046,4.0699,4.0698,4.0698,4.0697,0,4.0259,4.0342,4.0426,4.0481,4.0526,4.0628,4.0607,4.0658,4.0627,4.0622,4.074,4.0761,4.0826,4.086,4.0831,4.1001,4.0969,4.0909,4.0809,4.0986,4.1052,4.108,4.0712,4.0709,4.0706,4.0704,0,0,4.0553,4.0585,4.0617,4.0639,4.0674,4.0736,4.0834,4.0897,4.094,4.0981,4.106,4.1163,4.1107,4.1141,4.1115,4.1186,4.1355,4.1117,4.1117,4.1158,4.154,4.1582,4.1615,4.1322,4.1327,4.1331,4.1535,0,4.0762,4.0929,4.09,4.1063,4.1137,4.1067,4.1151,4.1181,4.1179,4.1241,4.1239,4.1311,4.1234,4.1253,4.132,4.132,4.1431,4.1306,4.1393,4.1397,4.1383,4.165,4.1696,4.1888,4.1562,4.1566,4.1569,0,4.1028,4.1077,4.1247,4.1267,4.1297,4.1374,4.1428,4.1489,4.152,4.1514,4.1551,4.1511,4.1606,4.1507,4.1637,4.1552,4.1586,4.1592,4.1598,4.1603,4.1492,4.166,4.1949,4.1977,4.1611,4.1607,4.1604,0,4.1221,4.1331,4.1445,4.1467,4.1495,4.1549,4.1563,4.1589,4.1628,4.1676,4.17,4.1759,4.179,4.1836,4.1812,4.1742,4.1945,4.1844,4.194,4.1941,4.1985,4.1982,4.2281,4.2012,4.2011,4.2011,4.201,0,4.1456,4.1562,4.1532,4.1603,4.1719,4.1683,4.1799,4.1804,4.1828,4.1897,4.1841,4.1907,4.1873,4.1936,4.1919,4.2027,4.2043,4.2038,4.2032,4.2042,4.2042,4.2062,4.2047,4.2018,4.2016,4.2015,4.2014,0,4.1691,4.1676,4.1796,4.1811,4.1817,4.1902,4.1914,4.1979,4.1973,4.2061,4.208,4.2069,4.2141,4.2122,4.22,4.2188,4.2324,4.2302,4.2313,4.2306,4.2402,4.2393,4.2723,4.2763,4.247,4.2473,4.2476,0,4.1841,4.1921,4.1944,4.1986,4.2004,4.2073,4.2112,4.208,4.2122,4.2163,4.2223,4.2289,4.234,4.2458,4.2456,4.2515,4.2492,4.2604,4.2501,4.2507,4.249,4.2485,4.2491,4.2624,4.2627,4.263,4.2632,0,4.2108,4.2095,4.2153,4.2209,4.2257,4.2299,4.2336,4.2374,4.2344,4.2394,4.2466,4.2506,4.2584,4.265,4.2704,4.2717,4.2669,4.2665,4.269,4.27,4.2701,4.2698,4.2366,4.2657,4.2655,4.2653,4.2652,4.2651,4.2302,4.2369,4.2395,4.2461,4.2485,4.252,4.2581,4.2581,4.2641,4.2701,4.2679,4.2761,4.2788,4.2854,4.2874,4.2937,4.2894,4.2931,4.294,4.2949,4.2959,4.2694,4.2947,4.2946,4.2946,4.2945,4.2944,0,4.2563,4.2576,4.2637,4.269,4.2741,4.2692,4.273,4.2776,4.2848,4.2878,4.2929,4.301,4.3073,4.3076,4.3135,4.3184,4.3163,4.32,4.3195,4.3198,4.2996,4.2967,4.3215,4.3215,4.3215,4.3215,4.3215,4.3215,4.2705,4.2813,4.2804,4.2923,4.2935,4.3014,4.3039,4.3071,4.3094,4.3186,4.3238,4.324,4.3258,4.3317,4.3372,4.3371,4.3394,4.3439,4.3429,4.324,4.3213,4.3187,4.3159,4.3445,4.3445,4.3626,4.3628,4.3629]},{"header":{"parameterUnit":"m.s-1","parameterCategory":1,"la1":30.2991,"la2":30.254,"lo1":-89.0895,"lo2":-89.0444,"dy":0.0017,"dx":0.0017,"nx":28,"ny":28,"refTime":"2023-07-21T09:00:00:Z","depth":0,"parameterNumber":3,"parameterNumberName":"V-component_of_WINDS"},"data":[0,0,0,0,0,0,0,0,0,0,0,0,0,0,0,0,0,0,0,0,0,0,0,0,0,0,0,0,0,0,0,0,0,0,0,0,0,0,0,0,0,0,0,0,0,0,0,0,0,0,0,0,0,0,0,0,0,0,1.024,1.0241,0,1.0325,1.0326,1.0327,1.0339,1.0338,1.0338,1.0337,1.0425,1.0428,1.0432,0,0,0,0,0,0,0,0,0,0,0,0,0,1.0089,1.0092,1.024,1.0241,1.0242,1.0325,1.0326,1.0327,1.0339,1.0338,1.0337,1.0337,1.0424,1.0428,1.0432,0,0,0,0,0,0,0,0,0,0,0,0,0,1.0162,1.0093,1.024,1.0258,1.0261,1.0324,1.0326,1.0327,1.034,1.0338,1.0337,1.0336,1.0423,1.0428,1.0432,1.0484,0,0,1.0446,1.0448,0,0,0,0,0,0,0,0,1.0158,1.0168,1.0254,1.0257,1.026,1.032,1.0305,1.038,1.034,1.031,1.0337,1.0336,1.0392,1.0399,1.0417,1.0488,1.0492,1.0447,1.045,1.0452,1.0453,0,0,0,0,0,0,0,1.0153,1.0164,1.0274,1.0256,1.0259,1.0262,1.0271,1.0319,1.0356,1.0312,1.0313,1.0323,1.0393,1.0413,1.0419,1.0494,1.0447,1.0451,1.0454,1.0456,1.061,1.0611,0,0,0,0,0,0,1.0145,1.016,1.0271,1.0276,1.0205,1.0266,1.0276,1.0302,1.0356,1.0363,1.0324,1.0323,1.0405,1.0414,1.0423,1.0486,1.0452,1.0456,1.0459,1.0609,1.061,1.0612,0,0,0,0,0,0,1.0141,1.0154,1.0268,1.0218,1.0233,1.027,1.0299,1.0304,1.0324,1.0365,1.0371,1.0338,1.0405,1.0416,1.0468,1.0489,1.0458,1.0462,1.0607,1.0609,1.0611,1.0614,0,0,0,0,0,0,1.0137,1.0153,1.0173,1.0219,1.0236,1.0312,1.03,1.0307,1.0332,1.0332,1.0379,1.0386,1.0405,1.0461,1.0473,1.0495,1.0466,1.0606,1.0608,1.0611,1.0612,1.0616,1.0619,0,0,0,0,0,1.0131,1.0171,1.0174,1.0188,1.0261,1.0313,1.0323,1.0343,1.0334,1.0354,1.038,1.0384,1.0485,1.0467,1.048,1.0504,1.0604,1.0607,1.061,1.0611,1.0615,1.0619,0,0,0,0,0,0,1.0128,1.0178,1.0181,1.0237,1.0271,1.0315,1.0342,1.0348,1.0385,1.0384,1.0408,1.0418,1.0469,1.0492,1.047,1.0556,1.0544,1.055,1.054,1.0544,1.0548,1.0541,1.047,0,0,0,0,0,1.0134,1.0171,1.0213,1.0258,1.0274,1.0305,1.0328,1.0341,1.0377,1.0391,1.0421,1.0456,1.0495,1.0521,1.056,1.0615,1.0625,1.0638,1.0641,1.0644,1.0649,1.0679,1.0685,1.0622,1.0622,1.0622,0,0,1.0147,1.0178,1.02,1.0258,1.0285,1.0324,1.0317,1.0358,1.0387,1.0398,1.0449,1.0471,1.0512,1.0566,1.0591,1.0586,1.0668,1.0648,1.065,1.0653,1.0683,1.0689,1.0694,1.0624,1.0623,1.0623,0,0,1.0189,1.0216,1.0256,1.0284,1.0325,1.0345,1.0354,1.0397,1.0413,1.0464,1.0473,1.0507,1.0575,1.0603,1.0626,1.0677,1.0682,1.0689,1.0707,1.0736,1.0741,1.0745,1.0763,1.0769,1.0693,1.0693,1.0693,0,1.0199,1.0257,1.0277,1.0317,1.0342,1.0352,1.0393,1.0419,1.0471,1.0487,1.0481,1.0565,1.0593,1.0653,1.0665,1.0684,1.0695,1.0684,1.0738,1.0743,1.0747,1.0765,1.0771,1.0694,1.0694,1.0694,1.0694,0,1.0267,1.0307,1.0334,1.0383,1.0411,1.0451,1.0477,1.0503,1.0513,1.0533,1.0584,1.0618,1.0663,1.0679,1.0689,1.074,1.0735,1.0733,1.0722,1.0754,1.077,1.0777,1.0695,1.0694,1.0694,1.0694,0,0,1.0311,1.0369,1.0379,1.04,1.0446,1.0477,1.0517,1.056,1.0582,1.0617,1.0651,1.0707,1.0705,1.0731,1.0745,1.077,1.0807,1.0765,1.0766,1.0771,1.0864,1.0866,1.0873,1.0811,1.0812,1.0813,1.0861,0,1.0358,1.043,1.0448,1.0509,1.0546,1.0556,1.0591,1.0622,1.0642,1.0676,1.0698,1.0737,1.0731,1.0747,1.0773,1.0797,1.0826,1.0794,1.0843,1.0844,1.0832,1.0882,1.0884,1.0927,1.0867,1.0868,1.0869,0,1.0423,1.0458,1.0523,1.0562,1.0578,1.0609,1.065,1.0682,1.0717,1.073,1.0758,1.0769,1.0811,1.0796,1.0855,1.0832,1.0853,1.0868,1.087,1.0876,1.0859,1.0888,1.0942,1.0948,1.088,1.0879,1.0878,0,1.0448,1.0511,1.0558,1.0576,1.0624,1.0645,1.0666,1.07,1.0724,1.076,1.0776,1.0816,1.0838,1.0868,1.0889,1.0877,1.0945,1.0933,1.0957,1.0956,1.0971,1.097,1.1028,1.0985,1.0984,1.0984,1.0984,0,1.0499,1.0538,1.057,1.0598,1.0642,1.0662,1.0705,1.0726,1.0756,1.0789,1.08,1.0831,1.0857,1.0891,1.0907,1.0952,1.0962,1.0973,1.0977,1.0973,1.0971,1.0987,1.0984,1.0986,1.0986,1.0985,1.0985,0,1.0534,1.0557,1.0608,1.0648,1.0659,1.0689,1.0724,1.0752,1.0771,1.0812,1.0823,1.0854,1.0894,1.0918,1.0969,1.098,1.103,1.1033,1.1018,1.102,1.1042,1.104,1.1113,1.1123,1.1073,1.1073,1.1073,0,1.0565,1.0595,1.0638,1.066,1.0681,1.0717,1.0741,1.0762,1.0787,1.0829,1.0852,1.0893,1.0926,1.099,1.1017,1.1056,1.106,1.1083,1.1066,1.106,1.106,1.1058,1.1061,1.1086,1.1086,1.1087,1.1087,0,1.0618,1.0627,1.0662,1.07,1.0728,1.076,1.0791,1.0808,1.0834,1.0862,1.0903,1.0929,1.098,1.1021,1.1061,1.1083,1.1089,1.1092,1.11,1.1095,1.1085,1.109,1.1026,1.109,1.109,1.109,1.109,1.109,1.0652,1.0678,1.0712,1.075,1.0775,1.0803,1.0831,1.0853,1.0888,1.0931,1.0941,1.0984,1.1018,1.1073,1.1095,1.1129,1.1125,1.1136,1.1139,1.1141,1.1142,1.1079,1.1137,1.1136,1.1136,1.1136,1.1136,0,1.0704,1.0726,1.076,1.0803,1.0832,1.0835,1.0869,1.0893,1.0931,1.0961,1.0994,1.104,1.1079,1.1108,1.1148,1.1169,1.1173,1.1179,1.1177,1.1182,1.1143,1.1133,1.1175,1.1175,1.1175,1.1175,1.1175,1.1175,1.0735,1.078,1.0793,1.085,1.0872,1.0913,1.0932,1.0958,1.0983,1.1034,1.1066,1.1084,1.1114,1.1156,1.1191,1.1199,1.1212,1.1218,1.1226,1.1189,1.1185,1.1181,1.1171,1.1221,1.1221,1.1262,1.1262,1.1262]}]]